Weather History for Fairbanks Eiels, AK

Change the Weather History Date:

Saturday, October 1, 2011

  Actual Average Record
Temperature  
Mean Temperature 37 °F -  
Max Temperature 45 °F 44 °F 71 °F (2003)
Min Temperature 30 °F 27 °F 14 °F (1972)
Degree Days  
Heating Degree Days 28    
Moisture  
Dew Point 32 °F    
Average Humidity 91    
Maximum Humidity 100    
Minimum Humidity 71    
Precipitation  
Precipitation 0.02 in - - ()
Sea Level Pressure  
Sea Level Pressure 29.70 in    
Wind  
Wind Speed 2 mph (North)    
Max Wind Speed 7 mph    
Max Gust Speed -    
Visibility 10 miles    
Events Rain , Snow    
Averages and records for this station are not official NWS values.
T = Trace of Precipitation, MM = Missing Value Source: NWS Daily Summary

Daily Weather History Graph

Daily Weather History Graph

Search for Another Location

Airport:

Trip Planner

Search our weather history database for the weather conditions in past years. The results will help you decide how hot, cold, wet, or windy it might be!

Date:

Astronomy

Oct. 01, 2011 Rise Set
Actual Time 7:57 AM AKDT 7:16 PM AKDT
Civil Twilight 7:09 AM AKDT 8:05 PM AKDT
Nautical Twilight 6:11 AM AKDT 9:02 PM AKDT
Astronomical Twilight 5:08 AM AKDT 10:04 PM AKDT
Moon 3:55 PM AKDT (10/1) 7:41 PM AKDT (10/1)
Length of Visible Light 12h 56m
Length of Day
11h 19m
Waxing Crescent, 26% of the Moon is Illuminated
Oct 1
Waxing Crescent
Oct 3
First Quarter
Oct 11
Full
Oct 19
Last Quarter
Oct 26
New

Hourly Weather History & Observations

Time (AKDT) Temp. Windchill Dew Point Humidity Pressure Visibility Wind Dir Wind Speed Gust Speed Precip Events Conditions
12:03 AM 33.8 °F 28.6 °F 32.0 °F 93% 29.64 in 10.0 mi SE 5.8 mph - N/A   Overcast
12:55 AM 32.7 °F 28.3 °F 31.1 °F 94% 29.65 in 10.0 mi Variable 4.6 mph - 0.00 in   Overcast
1:27 AM 32.0 °F 27.5 °F 30.2 °F 93% 29.65 in 10.0 mi South 4.6 mph - N/A   Overcast
1:55 AM 32.0 °F - 30.6 °F 94% 29.67 in 10.0 mi Calm Calm - N/A   Overcast
2:52 AM 30.2 °F - 28.4 °F 93% 29.68 in 10.0 mi Calm Calm - N/A   Mostly Cloudy
2:55 AM 30.7 °F - 29.7 °F 96% 29.68 in 10.0 mi Calm Calm - N/A   Mostly Cloudy
3:10 AM 30.2 °F - 28.4 °F 93% 29.68 in 10.0 mi Calm Calm - N/A   Mostly Cloudy
3:13 AM 30.2 °F 25.4 °F 28.4 °F 93% 29.68 in 10.0 mi South 4.6 mph - N/A   Mostly Cloudy
3:55 AM 31.3 °F - 30.4 °F 96% 29.69 in 10.0 mi Calm Calm - N/A   Overcast
4:32 AM 32.0 °F - 30.2 °F 93% 29.69 in 10.0 mi Calm Calm - N/A   Overcast
4:35 AM 32.0 °F - 30.2 °F 93% 29.69 in 10.0 mi Calm Calm - N/A   Overcast
4:51 AM 32.0 °F - 30.2 °F 93% 29.69 in 10.0 mi Calm Calm - N/A   Overcast
4:55 AM 31.8 °F - 30.4 °F 94% 29.69 in 10.0 mi Calm Calm - N/A   Overcast
5:33 AM 32.0 °F - 30.2 °F 93% 29.70 in 10.0 mi Calm Calm - N/A Rain Light Rain
5:44 AM 32.0 °F - 30.2 °F 93% 29.70 in 10.0 mi Calm Calm - N/A Rain Light Rain
5:55 AM 32.2 °F - 30.9 °F 95% 29.70 in 10.0 mi Calm Calm - 0.00 in   Mostly Cloudy
6:55 AM 32.2 °F - 30.9 °F 95% 29.70 in 10.0 mi Calm Calm - 0.00 in Snow Light Snow
7:00 AM 32.0 °F - 32.0 °F 100% 29.70 in 10.0 mi Calm Calm - N/A Snow Light Snow
7:11 AM 32.0 °F - 32.0 °F 100% 29.71 in 9.0 mi Calm Calm - N/A Snow Light Snow
7:13 AM 32.0 °F - 30.2 °F 93% 29.71 in 9.0 mi Calm Calm - N/A Snow Light Snow
7:23 AM 32.0 °F - 30.2 °F 93% 29.71 in 10.0 mi Calm Calm - N/A Snow Light Snow
7:24 AM 32.0 °F - 30.2 °F 93% 29.71 in 10.0 mi Calm Calm - N/A Snow Light Snow
7:25 AM 32.0 °F - 30.2 °F 93% 29.71 in 10.0 mi Calm Calm - N/A Snow Light Snow
7:32 AM 32.0 °F - 30.2 °F 93% 29.71 in 9.0 mi Calm Calm - N/A Snow Light Snow
7:39 AM 32.0 °F - 30.2 °F 93% 29.71 in 10.0 mi Calm Calm - N/A Snow Light Snow
7:55 AM 31.6 °F - 30.4 °F 95% 29.72 in 10.0 mi Calm Calm - 0.01 in Snow Light Snow
8:27 AM 32.0 °F - 30.2 °F 93% 29.72 in 10.0 mi Calm Calm - N/A Snow Light Snow
8:51 AM 32.0 °F - 30.2 °F 93% 29.73 in 10.0 mi Calm Calm - N/A Rain Light Freezing Rain
8:55 AM 32.0 °F - 30.7 °F 95% 29.72 in 10.0 mi Calm Calm - 0.01 in Rain Light Freezing Rain
9:00 AM 32.0 °F - 30.2 °F 93% 29.73 in 10.0 mi Calm Calm - N/A Rain Light Freezing Rain
9:11 AM 32.0 °F - 32.0 °F 100% 29.73 in 10.0 mi Calm Calm - N/A Rain Light Rain
9:12 AM 32.0 °F - 32.0 °F 100% 29.73 in 10.0 mi Calm Calm - N/A Rain Light Rain
9:18 AM 32.0 °F - 32.0 °F 100% 29.73 in 10.0 mi Calm Calm - N/A Rain Light Rain
9:23 AM 32.0 °F - 32.0 °F 100% 29.73 in 10.0 mi Calm Calm - N/A Rain Light Rain
9:45 AM 32.0 °F - 32.0 °F 100% 29.73 in 10.0 mi Calm Calm - N/A   Overcast
9:55 AM 32.5 °F - 31.6 °F 96% 29.74 in 10.0 mi Calm Calm - 0.00 in   Overcast
10:09 AM 32.0 °F - 32.0 °F 100% 29.73 in 10.0 mi Calm Calm - N/A   Overcast
10:37 AM 33.8 °F - 32.0 °F 93% 29.74 in 10.0 mi Calm Calm - N/A   Overcast
10:55 AM 34.0 °F - 32.5 °F 94% 29.74 in 10.0 mi Calm Calm - N/A   Overcast
11:55 AM 37.2 °F - 33.8 °F 87% 29.73 in 10.0 mi Calm Calm - N/A   Mostly Cloudy
12:12 PM 37.4 °F - 33.8 °F 87% 29.74 in 10.0 mi Calm Calm - N/A   Mostly Cloudy
12:54 PM 37.4 °F - 33.8 °F 87% 29.73 in 10.0 mi Calm Calm - N/A   Overcast
12:55 PM 37.8 °F - 34.2 °F 87% 29.73 in 10.0 mi Calm Calm - N/A   Overcast
1:55 PM 38.7 °F - 35.1 °F 87% 29.73 in 10.0 mi Calm Calm - N/A   Overcast
2:55 PM 40.5 °F - 35.6 °F 83% 29.71 in 10.0 mi Calm Calm - N/A   Overcast
3:55 PM 43.7 °F 41.1 °F 36.7 °F 76% 29.70 in 10.0 mi North 4.6 mph - N/A   Overcast
4:55 PM 44.8 °F 41.6 °F 35.8 °F 71% 29.68 in 10.0 mi Variable 5.8 mph - N/A   Clear
5:55 PM 43.7 °F 41.1 °F 36.7 °F 76% 29.67 in 10.0 mi North 4.6 mph - N/A   Overcast
6:55 PM 41.9 °F 38.2 °F 35.6 °F 78% 29.66 in 10.0 mi NNW 5.8 mph - N/A   Overcast
7:55 PM 41.9 °F - 35.2 °F 77% 29.65 in 10.0 mi Calm Calm - N/A   Clear
8:55 PM 39.9 °F - 34.5 °F 81% 29.64 in 10.0 mi Calm Calm - N/A   Partly Cloudy
9:55 PM 37.8 °F 34.2 °F 33.3 °F 84% 29.63 in 10.0 mi North 4.6 mph - N/A   Scattered Clouds
10:55 PM 36.5 °F 31.8 °F 32.0 °F 84% 29.62 in 10.0 mi NNW 5.8 mph - N/A   Mostly Cloudy
11:55 PM 35.6 °F 29.9 °F 30.6 °F 82% 29.60 in 10.0 mi NNW 6.9 mph - N/A   Partly Cloudy